Dati Storici

Data ora Umidita' aria (%) Temperatura aria (°C) Rad globale (W/m²) Gonioanemometro (°) Tacoanemometro (m/s) Pioggia (mm)
29-06-2020 18:50 77.6 % 24.235 -69.441 2.95 0 0
29-06-2020 18:40 75.5 % 24.47 -79.178 3.225 0 0
29-06-2020 18:30 74.3 % 25.027 15.407 3.894 0 0
29-06-2020 18:20 73.5 % 25.33 -61.847 7.568 0 0
29-06-2020 18:10 73.2 % 25.485 -72.318 3.5 0 0
29-06-2020 18:00 72.6 % 25.526 -75.692 1.382 0 0
29-06-2020 17:50 72.2 % 26.247 59.221 0.948 0 0
29-06-2020 17:40 72.3 % 26.511 -61.841 3.682 0 0
29-06-2020 17:30 73.1 % 26.038 -68.972 3.26 0 0
29-06-2020 17:20 73.1 % 26.168 -33.622 3.325 0 0
29-06-2020 17:10 72.2 % 25.874 -65.076 2.049 0 0
29-06-2020 17:00 71.6 % 25.817 -64.562 4.781 0 0
29-06-2020 16:50 69.4 % 26.504 37.334 4.405 0 0
29-06-2020 16:40 68.1 % 26.279 -54.856 4.389 0 0
29-06-2020 16:30 68 % 26.495 -39.412 1.264 0 0
29-06-2020 16:20 68.6 % 26.626 -73.951 2.918 0 0
29-06-2020 16:10 69.4 % 26.18 -75.7 3.291 0 0
29-06-2020 16:00 68 % 26.322 -60.263 2.566 0 0
29-06-2020 15:50 67.4 % 26.135 14.776 3.477 0 0
29-06-2020 15:40 66.6 % 26.059 36.785 3.969 0 0

I dati sono presentati in modo automatico a scopo informativo. In seguito a verifica i dati possono subire modifiche o essere invalidati e non riportati negli archivi definitivi.